Theta_e
307 306 306 307 306 307 308 309 309 308 309 310 309 310 310 311 311 311 311 312 312 312 312 312 313 312 313 314 316 318 323 328 333 329 332 339 340 336 334 337 337 337 335 333
305 307 307 307 307 307 308 309 308 309 310 310 309 311 310 310 310 311 311 311 311 311 311 310 310 310 311 312 313 315 318 323 325 326 331 333 339 340 338 338 337 336 336 334
306 307 308 307 308 310 309 310 309 311 310 310 309 309 309 308 309 310 311 311 311 311 309 310 311 311 311 311 312 313 315 317 319 323 325 335 337 340 340 339 337 334 334 332
306 307 308 308 309 310 311 309 311 310 309 309 310 311 310 309 309 308 309 311 310 310 310 312 312 312 313 313 311 312 313 315 318 320 323 324 330 332 338 339 337 335 333 335
307 308 307 308 308 310 308 310 310 309 309 310 310 309 308 309 308 307 306 309 309 311 312 313 313 313 312 313 315 312 312 313 316 316 320 324 326 329 333 338 337 337 335 335
305 307 307 307 309 310 309 308 305 305 306 308 307 309 308 307 307 308 307 309 312 314 314 313 312 313 312 312 312 315 313 313 314 316 317 322 325 326 331 334 335 337 336 334
307 309 308 311 310 307 305 304 305 305 307 308 307 308 308 308 309 308 308 312 314 313 312 312 312 312 312 312 312 313 315 313 313 314 316 319 324 327 329 332 335 337 335 332
309 309 308 309 309 309 307 305 305 308 310 306 306 308 307 307 308 311 314 314 313 312 312 312 311 312 312 312 312 313 317 315 314 314 315 317 322 327 329 330 332 336 336 332
308 310 309 309 309 308 308 306 304 306 307 307 307 307 307 308 309 313 313 313 312 312 312 311 312 312 313 312 312 313 319 317 317 314 315 317 319 324 327 328 330 335 337 330
308 310 309 309 309 308 307 306 308 301 306 305 307 309 309 309 309 310 311 311 312 312 312 312 311 314 314 314 314 318 319 319 319 315 315 317 321 323 325 328 331 335 335 329
307 308 309 309 309 308 306 306 308 304 303 307 311 308 307 308 308 309 309 311 311 312 313 312 313 318 318 318 318 319 321 322 322 320 315 318 321 324 325 329 334 336 332 327
308 306 309 309 308 307 305 306 306 306 309 309 309 311 309 308 308 309 310 311 312 312 314 312 313 316 313 315 316 320 326 330 327 322 315 318 322 324 328 333 336 334 329 327
308 308 310 308 306 306 309 308 307 308 308 311 312 310 308 309 310 310 310 311 313 312 315 314 312 313 312 312 314 321 328 334 331 324 319 321 323 325 332 333 334 330 328 327
310 308 309 309 307 305 309 310 309 311 312 311 311 310 309 309 309 309 311 313 313 313 315 313 312 311 311 311 314 319 328 335 335 327 322 322 323 325 331 333 329 328 327 327
306 308 308 310 310 311 311 311 311 312 312 313 312 311 310 309 309 311 313 313 312 311 313 314 311 311 310 311 312 320 327 335 335 328 322 322 324 327 331 330 328 326 327 331
307 308 308 311 311 310 309 309 310 311 311 312 312 312 311 310 311 312 311 311 311 312 311 310 309 309 311 309 311 311 325 335 337 329 324 322 329 330 329 328 326 328 331 334
305 306 309 308 308 309 311 310 310 310 310 311 312 311 309 311 312 311 311 311 311 310 310 309 309 310 310 308 308 313 326 338 340 335 330 327 329 329 328 327 328 332 336 340
305 308 309 311 310 313 309 309 312 312 312 310 310 310 310 311 312 311 311 311 310 310 310 309 309 309 310 309 311 313 326 337 341 337 335 330 329 328 328 333 337 341 348 347
306 308 312 313 310 308 309 310 313 312 312 311 310 310 311 311 310 311 311 311 310 311 310 310 309 309 309 310 312 320 326 328 342 337 337 334 331 333 337 337 343 341 346 344
307 308 310 312 311 308 307 310 311 310 312 310 310 310 310 310 313 313 311 311 311 311 310 309 308 309 309 311 313 323 327 325 334 338 339 338 338 339 340 342 342 342 344 341
311 310 311 312 312 310 309 311 311 313 310 308 311 311 310 311 312 312 312 312 311 311 310 309 308 308 309 311 313 324 325 326 330 335 336 338 337 339 338 342 340 340 337 334
311 312 310 311 312 311 312 311 312 308 309 310 310 311 311 312 311 311 312 311 311 310 308 308 308 308 309 311 314 322 324 326 329 332 336 336 338 339 339 339 337 335 332 333
306 306 305 309 307 308 309 310 309 308 309 311 310 311 312 311 310 311 311 311 311 309 308 308 308 308 308 311 314 323 326 325 326 328 331 336 337 337 337 335 332 331 331 331
306 306 306 305 307 306 306 307 308 310 310 309 310 311 311 310 310 310 310 310 310 308 308 308 307 307 308 311 315 326 327 325 328 326 327 331 337 335 332 331 332 332 332 330
306 304 305 305 305 306 307 308 309 309 309 310 309 308 309 309 307 307 308 308 307 307 308 308 307 307 308 312 316 326 325 325 324 328 324 328 334 332 332 333 332 331 330 330
304 305 307 309 307 307 307 309 310 309 309 307 307 306 305 304 303 303 303 305 307 308 308 307 306 306 309 312 316 325 326 323 326 331 327 331 333 332 331 331 332 331 331 331
Wind_Speed
3 4 3 4 5 5 3 3 5 5 5 5 8 16 10 10 14 16 20 19 17 15 14 13 15 17 17 14 12 15 18 21 25 24 28 38 45 45 39 41 35 29 29 28
5 3 5 4 5 4 4 3 4 5 5 7 9 23 18 13 9 17 14 13 16 14 19 21 18 20 22 22 18 15 14 19 25 29 31 31 37 43 41 40 35 33 30 28
5 5 2 3 2 3 3 4 3 5 3 5 7 9 5 5 4 5 10 14 19 22 18 16 19 21 24 24 24 24 17 17 19 27 33 34 32 39 46 45 37 39 36 32
4 3 3 3 2 4 3 4 4 5 4 3 4 6 2 8 9 4 12 21 19 18 20 21 24 27 28 30 29 29 26 21 20 21 31 38 42 40 41 45 41 42 37 33
7 2 4 2 5 5 7 3 3 3 3 2 3 4 5 4 4 8 8 13 12 20 23 23 23 22 24 26 26 29 31 29 25 23 25 34 39 41 43 50 47 45 37 33
7 3 3 5 2 3 3 4 5 4 2 2 6 5 1 2 6 6 7 15 18 17 19 24 28 32 34 31 31 28 29 33 31 28 27 31 38 42 40 44 50 48 36 30
3 2 1 2 2 3 5 6 4 4 2 5 1 4 8 10 17 6 8 15 17 20 26 30 36 41 41 41 38 33 30 33 36 34 32 29 37 39 42 40 44 48 37 29
2 4 3 0 3 4 4 6 4 5 3 6 3 8 7 6 12 15 10 13 21 25 26 33 41 44 44 47 43 34 32 36 36 39 35 30 36 41 43 44 45 50 40 29
3 4 4 3 4 6 2 3 4 2 2 2 5 8 12 15 12 6 11 17 21 24 28 34 43 51 53 54 49 33 34 38 38 40 41 34 33 42 46 44 44 46 38 31
3 4 4 5 1 2 5 5 0 3 3 5 5 6 10 11 15 5 9 17 27 26 27 38 48 46 48 43 36 30 33 38 41 43 44 38 33 39 43 46 43 37 36 32
4 3 4 3 4 6 1 1 3 3 4 4 5 6 5 6 9 9 9 19 27 23 27 35 44 37 36 30 30 35 32 35 43 43 46 41 36 37 39 40 34 37 37 32
3 4 4 9 7 4 5 6 6 3 4 4 3 15 4 14 13 8 16 23 27 22 24 37 42 39 41 35 34 36 33 35 44 42 47 43 36 36 36 34 35 39 34 27
4 2 3 6 2 3 3 5 5 3 1 9 8 12 4 4 7 21 23 26 27 22 25 35 42 39 43 45 37 36 31 33 39 41 43 40 38 35 33 35 37 34 26 26
6 6 7 9 6 3 8 14 10 7 5 9 18 26 22 18 17 13 22 24 22 25 23 27 35 42 46 49 38 42 32 25 29 36 39 37 37 35 34 36 32 25 27 28
6 8 9 13 13 11 14 18 18 16 20 13 27 18 21 19 17 10 17 19 22 24 22 24 29 35 44 50 43 39 35 20 21 31 37 34 35 32 32 33 28 27 27 28
4 4 4 4 7 12 19 22 20 19 19 18 25 24 21 25 11 11 18 20 20 18 21 25 35 43 48 49 42 50 38 13 12 19 32 35 32 33 33 32 30 29 27 28
4 3 3 9 7 7 10 17 13 6 6 6 7 15 5 5 6 7 19 24 20 18 25 31 35 36 37 43 47 42 33 1 7 10 21 30 34 36 34 31 28 27 28 29
7 6 4 5 2 5 6 3 5 9 9 7 8 12 10 9 8 17 23 25 20 23 24 35 33 35 39 43 29 28 24 8 4 11 21 27 32 32 29 26 27 29 29 32
15 8 3 3 4 7 7 3 1 4 6 3 10 10 7 10 15 19 26 19 23 33 30 34 42 39 40 38 38 32 20 14 3 7 15 25 28 27 27 31 32 31 31 33
7 10 3 2 3 4 6 1 3 2 9 2 4 7 6 8 14 14 29 31 34 35 28 39 42 35 34 30 30 29 19 7 2 9 16 21 22 25 32 33 33 31 36 36
4 3 9 7 5 6 6 2 2 2 5 9 8 10 12 11 18 36 36 36 34 31 32 38 36 36 32 27 26 22 18 3 6 10 14 18 25 28 33 36 30 35 35 32
1 1 2 3 5 6 5 2 5 5 24 21 24 29 27 28 33 27 35 35 32 30 32 34 36 37 27 23 23 20 12 6 11 12 15 20 27 37 36 34 36 34 32 31
2 4 2 6 5 7 8 17 29 28 26 21 27 32 31 33 33 32 38 35 32 28 33 31 35 35 25 20 20 19 6 4 9 2 8 22 35 37 34 35 36 34 32 30
4 1 4 4 6 10 22 31 30 28 31 40 31 33 35 34 30 29 34 34 29 30 30 25 31 33 25 15 17 11 9 7 10 7 10 18 31 34 33 33 33 32 30 29
6 4 4 6 10 16 22 25 30 38 35 31 31 33 32 29 29 32 35 36 36 34 27 29 30 34 21 14 14 5 8 12 5 5 17 20 35 34 34 33 30 27 26 23
3 5 3 4 22 25 25 34 35 31 29 33 31 31 38 37 35 35 39 38 32 27 33 35 32 23 15 12 13 4 9 10 10 28 28 38 38 35 32 30 28 24 21 17
Wind_Direction
23 75 199 225 213 215 232 203 221 257 266 343 293 289 284 273 281 282 282 287 297 313 324 337 329 319 312 299 286 269 261 277 275 278 264 251 243 237 234 234 240 241 249 250
24 225 221 228 228 199 208 245 261 284 297 314 294 290 288 263 238 252 270 287 293 300 310 316 310 310 304 301 292 280 265 257 267 277 275 265 251 240 234 237 237 249 249 252
161 226 202 213 270 211 217 229 245 243 281 271 301 290 296 330 258 243 271 284 284 297 310 314 317 317 317 305 294 286 272 260 266 260 275 265 252 245 238 241 239 242 248 254
225 247 226 341 268 148 281 217 247 282 358 296 60 279 228 235 251 302 280 290 298 304 307 311 316 318 317 310 299 287 280 267 264 256 256 267 261 257 251 241 252 247 250 251
247 229 233 265 235 170 234 352 286 279 282 345 289 292 260 143 210 287 295 283 280 299 309 317 323 322 321 316 307 288 280 272 261 264 255 251 258 255 252 250 257 251 249 252
239 256 203 218 180 189 344 4 353 47 73 325 242 199 216 179 123 264 265 286 296 305 313 314 319 322 317 319 315 302 282 270 266 261 265 249 249 250 245 244 252 251 249 249
332 256 311 141 68 23 70 49 338 334 8 233 190 295 249 288 302 250 260 281 303 315 319 320 322 320 316 317 314 305 293 274 266 261 263 258 246 245 244 243 245 245 245 244
197 310 196 6 166 204 232 151 166 255 223 270 304 258 257 241 255 255 249 285 306 311 320 326 326 321 316 314 310 299 293 280 266 260 259 258 246 245 244 243 241 242 244 248
176 258 291 241 201 140 194 166 192 246 202 350 222 289 297 271 257 280 271 285 302 312 320 325 332 324 316 307 304 289 290 276 270 258 256 253 249 238 243 244 242 241 238 241
215 288 242 282 7 232 165 166 197 11 296 264 258 251 244 288 288 248 287 296 310 310 316 327 328 318 309 303 294 288 287 278 272 256 251 254 251 236 241 243 244 233 228 235
158 163 280 337 216 206 143 277 90 148 163 222 295 253 217 241 263 269 269 286 304 299 319 328 330 332 324 310 306 296 289 278 270 259 244 248 249 237 241 242 231 220 226 232
189 156 246 236 248 212 168 201 167 167 236 224 231 270 257 270 279 294 290 299 299 287 312 335 335 325 328 321 316 307 293 280 266 252 240 242 241 235 238 231 214 218 225 226
184 213 303 308 26 8 177 194 191 183 253 237 261 267 13 312 302 304 302 303 306 290 303 322 329 315 318 329 318 318 307 271 255 239 232 237 231 229 228 217 216 218 217 227
187 193 194 236 236 177 271 268 248 223 248 277 245 274 280 286 292 298 301 317 310 302 303 319 325 318 322 330 324 326 316 295 246 225 221 226 222 223 223 213 213 215 222 223
183 241 213 247 254 259 265 270 269 252 255 249 276 272 278 281 287 276 302 315 313 314 312 318 323 317 322 328 328 325 318 299 239 212 214 218 216 218 211 210 210 214 216 215
180 257 193 255 235 257 269 267 258 255 258 254 259 268 270 276 270 268 303 311 311 313 325 331 327 324 329 322 319 313 307 305 235 196 209 207 204 199 204 200 201 205 206 209
182 196 300 274 240 272 273 253 242 214 206 212 246 254 263 254 260 284 306 304 299 309 328 334 331 321 311 307 307 315 309 212 210 181 187 192 200 194 187 191 196 204 203 197
208 199 196 257 254 240 240 285 230 241 253 243 271 278 268 259 282 308 310 301 290 317 326 329 315 322 314 296 275 313 358 26 215 199 186 173 179 183 187 194 197 188 186 181
212 214 236 238 210 298 294 278 187 205 280 258 268 287 279 302 311 297 303 302 297 311 318 322 324 320 322 325 343 349 353 20 148 191 193 184 185 185 190 185 179 179 180 178
176 204 208 215 248 243 244 260 137 169 289 323 205 267 284 325 306 305 307 304 301 305 314 323 325 321 324 330 342 346 347 7 28 164 188 191 198 192 183 179 177 181 170 165
139 169 220 242 257 275 265 177 97 209 259 346 306 264 270 289 283 294 299 305 310 308 315 321 318 318 324 331 343 347 337 320 35 189 190 204 202 193 180 169 170 167 165 162
312 251 209 211 229 268 178 131 188 246 305 310 311 305 291 294 293 288 297 303 301 302 316 315 310 315 322 332 339 343 338 217 172 121 182 189 197 178 172 169 162 165 166 167
300 180 221 199 234 274 278 268 290 302 288 290 303 307 288 296 297 295 296 299 299 305 313 307 308 315 316 329 337 334 345 270 200 256 126 183 179 168 165 161 160 164 168 168
300 229 237 345 251 264 286 295 293 306 294 300 296 293 294 291 291 287 293 293 289 297 295 294 300 308 309 328 334 326 289 209 162 74 127 180 172 163 162 162 165 167 169 171
267 295 257 256 280 307 286 285 284 292 298 295 302 302 293 291 289 288 283 280 284 286 275 283 289 295 297 313 334 331 275 234 226 260 194 162 174 166 162 165 166 171 176 181
216 234 272 276 290 286 282 294 307 305 302 300 291 291 289 285 285 285 279 276 274 265 275 284 288 276 279 302 320 219 220 226 312 141 166 183 168 165 163 167 167 171 175 177